Wiley Ford, WV

1:45 AM EST on February 08, 2016 (GMT -0500)
Greater Cumberland Regional

Weather History for KCBE - March, 2013

Change the Weather History Date:

Friday, March 15, 2013

  Actual Average (KMRB) Record (KMRB)
Temperature  
Mean Temperature 44 °F 42 °F  
Max Temperature 55 °F 52 °F 83 °F (1989)
Min Temperature 32 °F 31 °F -3 °F (1993)
Degree Days  
Heating Degree Days 22 23  
Month to date heating degree days 387  
Since 1 July heating degree days 4343  
Cooling Degree Days 0 0  
Month to date cooling degree days 0  
Year to date cooling degree days 0  
Moisture  
Dew Point 27 °F    
Average Humidity 53    
Maximum Humidity 65    
Minimum Humidity 40    
Precipitation  
Precipitation 0.00 in 0.12 in 1.10 in (1940)
Month to date precipitation 1.56  
Year to date precipitation 6.34  
Sea Level Pressure  
Sea Level Pressure 29.97 in    
Wind  
Wind Speed 5 mph (SW)    
Max Wind Speed 20 mph    
Max Gust Speed 30 mph    
Visibility 10 miles    
Events      
T = Trace of Precipitation, MM = Missing Value Source: NWS Daily Summary

Daily Weather History Graph

Daily Weather History Graph

Search for Another Location

Airport or City:

Trip Planner

Search our weather history database for the weather conditions in past years. The results will help you decide how hot, cold, wet, or windy it might be!

Date:

Astronomy

Mar. 15, 2013 Rise Set
Actual Time 7:26 AM EDT 7:22 PM EDT
Civil Twilight 6:59 AM EDT 7:49 PM EDT
Nautical Twilight 6:28 AM EDT 8:20 PM EDT
Astronomical Twilight 5:56 AM EDT 8:52 PM EDT
Moon 9:16 AM EDT (3/15) 11:33 PM EDT (3/15)
Length of Visible Light 12h 49m
Length of Day
11h 56m
Waxing Crescent, 15% of the Moon is Illuminated
Mar 15
Waxing Crescent
Mar 19
First Quarter
Mar 27
Full
Apr 3
Last Quarter
Apr 10
New

Hourly Weather History & Observations

Time (EDT) Temp. Windchill Dew Point Humidity Pressure Visibility Wind Dir Wind Speed Gust Speed Precip Events Conditions
12:10 AM 33.8 °F 30.8 °F 21.2 °F 60% 30.15 in 10.0 mi West 3.5 mph - N/A   Clear
12:29 AM 33.8 °F - 21.2 °F 60% 30.15 in 10.0 mi Calm Calm - N/A   Clear
12:50 AM 33.8 °F - 21.2 °F 60% 30.15 in 10.0 mi Calm Calm - N/A   Clear
1:10 AM 33.8 °F 30.8 °F 21.2 °F 60% 30.14 in 10.0 mi West 3.5 mph - N/A   Clear
1:30 AM 33.8 °F - 21.2 °F 60% 30.14 in 10.0 mi Calm Calm - N/A   Clear
1:50 AM 33.8 °F - 21.2 °F 60% 30.13 in 10.0 mi Calm Calm - N/A   Clear
2:10 AM 33.8 °F 30.8 °F 21.2 °F 60% 30.12 in 10.0 mi WSW 3.5 mph - N/A   Clear
2:30 AM 32.0 °F - 21.2 °F 64% 30.12 in 10.0 mi Calm Calm - N/A   Clear
2:50 AM 32.0 °F - 21.2 °F 64% 30.12 in 10.0 mi Calm Calm - N/A   Clear
3:10 AM 32.0 °F 28.7 °F 21.2 °F 64% 30.12 in 10.0 mi WSW 3.5 mph - N/A   Clear
3:30 AM 33.8 °F 30.8 °F 21.2 °F 60% 30.11 in 10.0 mi SSW 3.5 mph - N/A   Clear
3:50 AM 32.0 °F 26.4 °F 21.2 °F 64% 30.10 in 10.0 mi SW 5.8 mph - N/A   Clear
4:11 AM 32.0 °F 27.5 °F 21.2 °F 64% 30.10 in 10.0 mi SSW 4.6 mph - N/A   Clear
4:31 AM 32.0 °F 27.5 °F 21.2 °F 64% 30.09 in 10.0 mi South 4.6 mph - N/A   Clear
4:51 AM 32.0 °F 28.7 °F 21.2 °F 64% 30.08 in 10.0 mi South 3.5 mph - N/A   Clear
5:11 AM 32.0 °F 26.4 °F 21.2 °F 64% 30.07 in 10.0 mi South 5.8 mph - N/A   Clear
5:31 AM 32.0 °F 27.5 °F 21.2 °F 64% 30.08 in 10.0 mi South 4.6 mph - N/A   Clear
5:51 AM 32.0 °F 26.4 °F 21.2 °F 64% 30.07 in 10.0 mi South 5.8 mph - N/A   Clear
6:11 AM 32.0 °F 27.5 °F 21.2 °F 64% 30.07 in 10.0 mi WSW 4.6 mph - N/A   Clear
6:31 AM 32.0 °F 26.4 °F 19.4 °F 60% 30.07 in 10.0 mi SSE 5.8 mph - N/A   Clear
6:51 AM 32.0 °F 27.5 °F 21.2 °F 64% 30.06 in 10.0 mi South 4.6 mph - N/A   Clear
7:11 AM 32.0 °F 27.5 °F 19.4 °F 60% 30.06 in 10.0 mi South 4.6 mph - N/A   Clear
7:31 AM 32.0 °F 27.5 °F 19.4 °F 60% 30.06 in 10.0 mi South 4.6 mph - N/A   Clear
7:51 AM 32.0 °F 26.4 °F 19.4 °F 60% 30.05 in 10.0 mi SSE 5.8 mph - N/A   Clear
8:11 AM 32.0 °F 27.5 °F 21.2 °F 64% 30.05 in 10.0 mi SSE 4.6 mph - N/A   Clear
8:31 AM 32.0 °F 28.7 °F 21.2 °F 64% 30.05 in 10.0 mi SSE 3.5 mph - N/A   Mostly Cloudy
8:51 AM 33.8 °F 29.6 °F 23.0 °F 65% 30.04 in 10.0 mi SSE 4.6 mph - N/A   Overcast
9:11 AM 37.4 °F 32.8 °F 23.0 °F 56% 30.03 in 10.0 mi SSE 5.8 mph - N/A   Overcast
9:31 AM 41.0 °F 34.7 °F 21.2 °F 45% 30.02 in 10.0 mi SSE 10.4 mph - N/A   Overcast
9:51 AM 42.8 °F 38.6 °F 21.2 °F 42% 30.01 in 10.0 mi WSW 6.9 mph - N/A   Overcast
10:11 AM 42.8 °F 41.1 °F 21.2 °F 42% 30.01 in 10.0 mi WSW 3.5 mph - N/A   Overcast
10:31 AM 44.6 °F 42.2 °F 23.0 °F 43% 30.00 in 10.0 mi SSW 4.6 mph - N/A   Overcast
10:51 AM 46.4 °F 42.9 °F 23.0 °F 40% 29.99 in 10.0 mi SW 6.9 mph 16.1 mph N/A   Overcast
11:11 AM 46.4 °F 41.9 °F 24.8 °F 43% 29.98 in 10.0 mi SW 9.2 mph 16.1 mph N/A   Scattered Clouds
11:31 AM 46.4 °F 42.9 °F 26.6 °F 46% 29.97 in 10.0 mi WNW 6.9 mph - N/A   Clear
11:51 AM 48.2 °F - 28.4 °F 46% 29.96 in 10.0 mi South 11.5 mph 18.4 mph N/A   Scattered Clouds
12:11 PM 50.0 °F - 28.4 °F 43% 29.96 in 10.0 mi SW 9.2 mph - N/A   Mostly Cloudy
12:32 PM 46.4 °F 41.9 °F 28.4 °F 50% 29.95 in 10.0 mi SSW 9.2 mph - N/A   Mostly Cloudy
12:52 PM 46.4 °F 40.1 °F 30.2 °F 53% 29.95 in 10.0 mi WSW 15.0 mph 23.0 mph N/A   Mostly Cloudy
1:12 PM 46.4 °F 39.2 °F 30.2 °F 53% 29.94 in 10.0 mi WSW 18.4 mph 24.2 mph N/A   Mostly Cloudy
1:30 PM 46.4 °F 39.0 °F 32.0 °F 57% 29.93 in 10.0 mi WSW 19.6 mph 29.9 mph N/A   Overcast
1:52 PM 48.2 °F - 32.0 °F 54% 29.91 in 10.0 mi SSW 9.2 mph - N/A   Mostly Cloudy
2:12 PM 50.0 °F - 32.0 °F 50% 29.90 in 10.0 mi SSW 6.9 mph - N/A   Mostly Cloudy
2:32 PM 51.8 °F - 32.0 °F 47% 29.88 in 10.0 mi WSW 12.7 mph 18.4 mph N/A   Scattered Clouds
2:52 PM 51.8 °F - 32.0 °F 47% 29.87 in 10.0 mi WSW 9.2 mph 18.4 mph N/A   Scattered Clouds
3:12 PM 53.6 °F - 32.0 °F 44% 29.86 in 10.0 mi West 9.2 mph 24.2 mph N/A   Scattered Clouds
3:32 PM 53.6 °F - 32.0 °F 44% 29.85 in 10.0 mi West 4.6 mph 19.6 mph N/A   Clear
3:52 PM 53.6 °F - 32.0 °F 44% 29.85 in 10.0 mi WNW 11.5 mph 17.3 mph N/A   Clear
4:12 PM 53.6 °F - 32.0 °F 44% 29.85 in 10.0 mi WSW 10.4 mph 19.6 mph N/A   Clear
4:32 PM 53.6 °F - 32.0 °F 44% 29.84 in 10.0 mi WSW 8.1 mph - N/A   Clear
4:52 PM 53.6 °F - 32.0 °F 44% 29.84 in 10.0 mi West 10.4 mph 23.0 mph N/A   Clear
5:12 PM 55.4 °F - 32.0 °F 41% 29.83 in 10.0 mi WSW 11.5 mph 18.4 mph N/A   Clear
5:32 PM 55.4 °F - 32.0 °F 41% 29.82 in 10.0 mi WSW 6.9 mph - N/A   Clear
5:52 PM 53.6 °F - 32.0 °F 44% 29.83 in 10.0 mi SW 8.1 mph 18.4 mph N/A   Clear
6:12 PM 53.6 °F - 32.0 °F 44% 29.83 in 10.0 mi West 9.2 mph - N/A   Clear
6:32 PM 53.6 °F - 32.0 °F 44% 29.83 in 10.0 mi West 5.8 mph - N/A   Clear
6:52 PM 51.8 °F - 32.0 °F 47% 29.84 in 10.0 mi West 4.6 mph - N/A   Clear
7:12 PM 51.8 °F - 32.0 °F 47% 29.84 in 10.0 mi West 5.8 mph 16.1 mph N/A   Clear
7:32 PM 50.0 °F - 32.0 °F 50% 29.84 in 10.0 mi SW 4.6 mph - N/A   Clear
7:52 PM 50.0 °F - 32.0 °F 50% 29.85 in 10.0 mi SSW 4.6 mph - N/A   Clear
8:12 PM 50.0 °F - 32.0 °F 50% 29.85 in 10.0 mi SW 4.6 mph - N/A   Clear
8:32 PM 50.0 °F - 32.0 °F 50% 29.86 in 10.0 mi SW 3.5 mph - N/A   Clear
8:52 PM 50.0 °F - 32.0 °F 50% 29.85 in 10.0 mi West 8.1 mph - N/A   Clear
9:12 PM 50.0 °F - 32.0 °F 50% 29.85 in 10.0 mi West 3.5 mph - N/A   Clear
9:33 PM 50.0 °F - 32.0 °F 50% 29.85 in 10.0 mi West 5.8 mph - N/A   Clear
9:53 PM 50.0 °F - 32.0 °F 50% 29.85 in 10.0 mi West 3.5 mph - N/A   Clear
10:13 PM 50.0 °F - 32.0 °F 50% 29.85 in 10.0 mi West 4.6 mph - N/A   Clear
10:33 PM 50.0 °F - 32.0 °F 50% 29.85 in 10.0 mi Calm Calm - N/A   Clear
10:53 PM 50.0 °F - 32.0 °F 50% 29.85 in 10.0 mi Calm Calm - N/A   Clear
11:13 PM 50.0 °F - 33.8 °F 54% 29.85 in 10.0 mi WNW 5.8 mph - N/A   Clear
11:33 PM 50.0 °F - 33.8 °F 54% 29.85 in 10.0 mi West 6.9 mph - N/A   Clear
11:53 PM 50.0 °F - 33.8 °F 54% 29.84 in 10.0 mi Calm Calm - N/A   Clear